Change the Weather History Date:

Friday, October 18, 2013

  Actual Average Record
Temperature  
Mean Temperature 78 °F -  
Max Temperature 84 °F 87 °F 90 °F (1971)
Min Temperature 71 °F 67 °F 64 °F (1966)
Cooling Degree Days 12    
Growing Degree Days 28 (Base 50)    
Moisture  
Dew Point 68 °F    
Average Humidity 74    
Maximum Humidity 84    
Minimum Humidity 62    
Precipitation  
Precipitation 0.00 in - - ()
Sea Level Pressure  
Sea Level Pressure 29.94 in    
Wind  
Wind Speed 6 mph (NNE)    
Max Wind Speed 15 mph    
Max Gust Speed -    
Visibility 10 miles    
Events      
Averages and records for this station are not official NWS values.
T = Trace of Precipitation, MM = Missing Value Source: NWS Daily Summary

Daily Weather History Graph

Daily Weather History Graph

Search for Another Location

Airport or City:

Trip Planner

Search our weather history database for the weather conditions in past years. The results will help you decide how hot, cold, wet, or windy it might be!

Date:

Astronomy

Oct. 18, 2013 Rise Set
Actual Time 6:36 AM HST 6:11 PM HST
Civil Twilight 6:14 AM HST 6:33 PM HST
Nautical Twilight 5:47 AM HST 7:00 PM HST
Astronomical Twilight 5:21 AM HST 7:26 PM HST
Moon 6:12 PM HST (10/18) 6:23 AM HST (10/18)
Length of Visible Light 12h 19m
Length of Day
11h 34m
Full, 100% of the Moon is Illuminated
Oct 18
Full
Oct 18
Full
Oct 26
Last Quarter
Nov 3
New
Nov 9
First Quarter

Hourly Weather History & Observations

Time (HST) Temp. Heat Index Dew Point Humidity Pressure Visibility Wind Dir Wind Speed Gust Speed Precip Events Conditions
12:56 AM 73.0 °F - 63.0 °F 71% 29.97 in 10.0 mi ENE 3.5 mph - N/A   Clear
1:51 AM 71.6 °F - 64.4 °F 78% 29.95 in 10.0 mi Calm Calm - N/A   Partly Cloudy
1:56 AM 72.0 °F - 64.0 °F 76% 29.96 in 10.0 mi ENE 3.5 mph - N/A   Clear
2:56 AM 71.1 °F - 64.9 °F 81% 29.95 in 10.0 mi NE 3.5 mph - N/A   Clear
3:56 AM 72.0 °F - 64.0 °F 76% 29.94 in 10.0 mi East 3.5 mph - N/A   Clear
4:56 AM 71.1 °F - 64.9 °F 81% 29.93 in 10.0 mi ENE 4.6 mph - N/A   Clear
5:56 AM 71.1 °F - 66.0 °F 84% 29.94 in 10.0 mi East 3.5 mph - N/A   Clear
6:56 AM 71.1 °F - 64.9 °F 81% 29.95 in 10.0 mi ENE 5.8 mph - N/A   Clear
7:56 AM 77.0 °F - 63.0 °F 62% 29.97 in 10.0 mi East 3.5 mph - N/A   Clear
8:56 AM 79.0 °F - 70.0 °F 74% 29.98 in 10.0 mi SW 4.6 mph - N/A   Clear
9:56 AM 80.1 °F 83.2 °F 70.0 °F 71% 29.99 in 10.0 mi West 5.8 mph - N/A   Clear
10:56 AM 81.0 °F 84.1 °F 69.1 °F 67% 29.99 in 10.0 mi NW 8.1 mph - N/A   Clear
11:56 AM 82.9 °F 87.0 °F 70.0 °F 65% 29.96 in 10.0 mi NNW 10.4 mph - N/A   Clear
12:56 PM 84.0 °F 89.0 °F 71.1 °F 65% 29.94 in 10.0 mi NNW 11.5 mph - N/A   Clear
1:56 PM 82.9 °F 87.5 °F 71.1 °F 67% 29.91 in 10.0 mi NNW 11.5 mph - N/A   Clear
2:56 PM 82.9 °F 87.0 °F 70.0 °F 65% 29.89 in 10.0 mi NNW 11.5 mph - N/A   Clear
3:56 PM 82.9 °F 87.5 °F 71.1 °F 67% 29.89 in 10.0 mi North 15.0 mph - N/A   Clear
4:56 PM 82.0 °F 85.9 °F 70.0 °F 67% 29.89 in 10.0 mi North 15.0 mph - N/A   Clear
5:56 PM 80.1 °F 83.6 °F 71.1 °F 74% 29.90 in 10.0 mi NNW 10.4 mph - N/A   Clear
6:56 PM 79.0 °F - 71.1 °F 77% 29.91 in 10.0 mi North 10.4 mph - N/A   Partly Cloudy
7:56 PM 78.1 °F - 70.0 °F 76% 29.92 in 10.0 mi North 10.4 mph - N/A   Clear
8:56 PM 78.1 °F - 70.0 °F 76% 29.93 in 10.0 mi North 5.8 mph - N/A   Clear
9:56 PM 75.0 °F - 68.0 °F 79% 29.93 in 10.0 mi NNE 4.6 mph - N/A   Clear
10:56 PM 73.9 °F - 68.0 °F 82% 29.92 in 10.0 mi NNE 3.5 mph - N/A   Clear
11:56 PM 73.0 °F - 68.0 °F 84% 29.91 in 10.0 mi NE 3.5 mph - N/A   Partly Cloudy